Regional Weather Roundup
Issued by NWS Boston, MA

Home | Current Version | Previous Version | Text Only | Print | Product List | Glossary On
Versions: 1 2 3 4 5 6 7 8 9 10 11 12 13 14 15 16 17 18 19 20 21 22 23 24 25 26 27 28 29 30 31 32 33 34 35 36 37 38 39 40 41 42 43 44 45 46 47 48 49 50
000
ASUS41 KBOX 212210
RWRBOX

REGIONAL WEATHER ROUNDUP
NATIONAL WEATHER SERVICE TAUNTON MA
500 PM EST SUN DEC 21 2014

NOTE:  "FAIR" INDICATES FEW OR NO CLOUDS BELOW 12,000 FEET WITH NO
SIGNIFICANT WEATHER AND/OR OBSTRUCTIONS TO VISIBILITY.  THE FOLLOWING
OBSERVATION LOCATIONS DO NOT REPORT PRESENT WEATHER...PROVINCETOWN...
SMITHFIELD...BLOCK ISLAND...KEENE...AND OXFORD.

MAZALL-212300-
EASTERN MASSACHUSETTS

CITY           SKY/WX    TMP DP  RH WIND       PRES   REMARKS
BOSTON         FLURRIES  34  28  79 N8        30.32S WCI  27
BEVERLY        CLOUDY    33  25  72 N5        30.31S WCI  29
LAWRENCE       CLOUDY    32  26  78 N3        30.34R
BEDFORD        CLOUDY    32  26  78 N5        30.31R WCI  27
BLUE HILL        N/A     30  29  96 N7        30.27S WCI  23
NORWOOD        CLOUDY    34  29  82 N3        30.31S
MARSHFIELD     MIX PCPN  37  36  93 N7        30.32R
PLYMOUTH       LGT RAIN  34  33  96 NW7       30.29S WCI  28
TAUNTON        CLOUDY    34  32  92 N3        30.30R
NEW BEDFORD    CLOUDY    34  33  96 N5        30.29R WCI  30
$$

MAZALL-212300-
CAPE COD AND THE ISLANDS

CITY           SKY/WX    TMP DP  RH WIND       PRES   REMARKS
FALMOUTH       CLOUDY    39  34  81 NE6       30.28R
HYANNIS        CLOUDY    40  34  79 NE7       30.27R
CHATHAM        CLOUDY    41  34  76 VRB7      30.28R
PROVINCETOWN   CLOUDY    43  32  65 NE7       30.29S
NANTUCKET      CLOUDY    42  32  67 NE5       30.27R
MARTHAS VNYRD  CLOUDY    40  32  73 NE5       30.28R
$$

MAZALL-212300-
CENTRAL AND WESTERN MASSACHUSETTS

CITY           SKY/WX    TMP DP  RH WIND       PRES   REMARKS
WORCESTER      CLOUDY    29  27  92 NE6       30.27R WCI  23
FITCHBURG      CLOUDY    33  27  78 N3        30.32S
ORANGE         CLOUDY    33  29  85 N3        30.29R
SPRINGFIELD    NOT AVBL
WESTFIELD      CLOUDY    33  29  85 N6        30.31R WCI  28
NORTH ADAMS    CLOUDY    29  26  89 CALM      30.30R
PITTSFIELD     CLOUDY    30  27  88 W3        30.25R
$$

RIZALL-212300-
RHODE ISLAND

CITY           SKY/WX    TMP DP  RH WIND       PRES   REMARKS
PROVIDENCE     FLURRIES  33  30  88 NE9       30.31R WCI  25
NEWPORT        CLOUDY    34  32  92 N9        30.29R WCI  27
BLOCK ISLAND   CLOUDY    37  34  87 NE13G20   30.27R WCI  29
SMITHFIELD     CLOUDY    32  25  74 N8        30.28R WCI  25
WESTERLY       CLOUDY    36  32  85 NE8       30.29R WCI  30
$$

CTZALL-212300-
CONNECTICUT

CITY           SKY/WX    TMP DP  RH WIND       PRES   REMARKS
BRADLEY INTL   CLOUDY    34  29  82 N5        30.30R WCI  30
HARTFORD       CLOUDY    34  30  85 N7        30.32R WCI  28
BRIDGEPORT     LGT RAIN  36  33  89 N6        30.30R WCI  31
DANBURY        CLOUDY    33  27  78 CALM      30.30R
GROTON         LGT RAIN  35  34  96 N7        30.29R WCI  29
NEW HAVEN      CLOUDY    36  31  82 N8        30.30R FOG     WCI  30
CHESTER        CLOUDY    34  32  93 N5        30.28R WCI  30
MERIDEN        LGT SNOW  33  30  88 N7        30.31R FOG     WCI  27
WILLIMANTIC    CLOUDY    35  29  78 N6        30.30R WCI  30
OXFORD         LGT SNOW  34  27  75 N5        30.28R WCI  30
$$

MEZ002-015-021-024-NHZ003-005-008-011-012-014-VTZ005-008-212300-
NORTHERN NEW ENGLAND

CITY           SKY/WX    TMP DP  RH WIND       PRES   REMARKS
PORTLAND ME    PTCLDY    30  23  75 NE6       30.34S WCI  24
BANGOR ME      CLOUDY    28  25  88 W5        30.36R WCI  23
CONCORD NH     LGT SNOW  30  27  88 NW3       30.33R FOG
MANCHESTER NH  CLOUDY    33  27  78 NW3       30.31R
NASHUA NH      CLOUDY    33  29  86 CALM      30.33S
PORTSMOUTH NH  CLOUDY    33  22  66 N3        30.32R
JAFFREY NH     CLOUDY    30  26  85 CALM      30.28R
KEENE NH       CLOUDY    32  28  86 N3        30.31R
BURLINGTON VT  CLOUDY    26  20  77 N5        30.35R WCI  20
MT. WASHINGTON SNOW      10  10 100 W23         N/A  VSB 1/16WCI -10
$$

NYZ052-076-212300-
EASTERN NEW YORK

CITY           SKY/WX    TMP DP  RH WIND       PRES   REMARKS
ALBANY         CLOUDY    31  23  72 CALM      30.34R
NEW YORK CITY  CLOUDY    36  28  73 N7        30.30S WCI  30
$$

ANZALL-212300-
MARINE OBSERVATIONS

STATION/POSITION TIME  TEMP    WIND        PRES    VSBY  WAVE
                       AIR SEA DIR/SP/G                  HT/PER
                 (UTC) (F)     (DEG/KT/KT) (MB)    (MI)  (FT/S)
BOSTON BUOY      2150   37 45   10/ 17/ 21 1026.1R         4/ 6
BUZZARDS BAY     2100           10/ 15/ 17 1025.3R
NANTUCKET SOUND  2150   42 44   30/ 10/ 14 1024.9R         1/ 3
MASS BAY-STELLWA 2104   36 43  350/ 19/ 21   N/A    1 7/8  3/ 5
ISLE OF SHOALS   2200   34      20/  9/ 10 1026.3R
S OF BLOCK IS    2108      51                N/A           3/ 4
$$

......................KEY.........................
  SKY/WX - SKY CONDITION/PRESENT WEATHER
  TMP    - TEMPERATURE IN FAHRENHEIT
  DWPT   - DEWPOINT IN FAHRENHEIT
  RH     - RELATIVE HUMIDITY IN PERCENT
  WIND   - DIRECTION AND SPEED IN MPH
  PRES   - MEAN SEA LEVEL PRESSURE IN INCHES OF HG
  WCI    - WIND CHILL INDEX
  VSB    - VISIBILITY IN MILES
  HX     - HEAT INDEX
  TC     - TEMPERATURE IN CELSIUS
  VRB    - VARIABLE WIND DIRECTION
  N/A    - NOT AVAILABLE



USA.gov is the U.S. government's official web portal to all federal, state and local government web resources and services.